Regional Weather Roundup
Issued by NWS Green Bay, WI

Home | Current Version | Previous Version | Text Only | Print | Product List | Glossary On
Versions: 1 2 3 4 5 6 7 8 9 10 11 12 13 14 15 16 17 18 19 20 21 22 23 24 25 26 27 28 29 30 31 32 33 34 35 36 37 38 39 40 41 42 43 44 45 46 47 48 49 50
000
ASUS43 KGRB 312010
RWRGRB

NORTH-CENTRAL AND NORTHEAST WISCONSIN REGIONAL WEATHER ROUNDUP
NATIONAL WEATHER SERVICE GREEN BAY WI
300 PM CDT FRI OCT 31 2014

WIZ005-009-010>012-018-019-312100-
NORTH CENTRAL WISCONSIN

CITY           SKY/WX    TMP DP  RH WIND       PRES   REMARKS
IRONWOOD       CLOUDY    32  21  64 N9        30.45S
MANITOWISH WTR CLOUDY    30  25  82 N6G16     30.42S
ARBOR VITAE    MOSUNNY   33  24  70 NE15G21   30.41S
EAGLE RIVER    CLOUDY    31  19  61 N12G20    30.39S
LAND O LAKES   PTSUNNY   31  24  73 N10       30.41S
RHINELANDER    CLOUDY    30  20  66 N14G22    30.40S
PHILLIPS       CLOUDY    32  22  67 N13G18    30.43S
ANTIGO         PTSUNNY   34  20  57 N15G22    30.37S
TOMAHAWK       CLOUDY    32  21  64 N13G20    30.42R
MERRILL        CLOUDY    34  20  57 NE14      30.39F
$$

WIZ013-073-312100-
NORTHEAST WISCONSIN

CITY           SKY/WX    TMP DP  RH WIND       PRES   REMARKS
IRON MOUNTAIN  CLOUDY    36  22  56 NW18G25   30.37R
MARINETTE      CLOUDY    36  18  48 NE22G30   30.34S
OCONTO         CLOUDY    37  20  50 N12G21    30.35R
$$

WIZ017-030-035>037-045-312100-
CENTRAL WISCONSIN

CITY           SKY/WX    TMP DP  RH WIND       PRES   REMARKS
MEDFORD        PTSUNNY   36  19  51 N12G23    30.41R
WAUSAU         PTSUNNY   35  20  54 N14G23    30.39R
MOSINEE        PTSUNNY   36  19  51 N20G28    30.40S
MARSHFIELD     CLOUDY    36  18  48 NE16G24   30.40S
WISC RAPIDS    PTSUNNY   39  18  42 N21G26    30.41R
STEVENS POINT  PTSUNNY   36  16  44 N15G23    30.38S
WAUPACA        CLOUDY    39  20  46 N17G24    30.37R
SHAWANO        PTSUNNY   40  21  46 N17G24    30.36S
CLINTONVILLE   CLOUDY    37  19  48 N17G25    30.36R
$$

WIZ038-039-048-051-312100-
FOX VALLEY

CITY           SKY/WX    TMP DP  RH WIND       PRES   REMARKS
NWS GREEN BAY  CLOUDY    38  21  50 N21G28    30.34R
APPLETON       PTSUNNY   37  18  44 N26G35    30.34R
OSHKOSH        PTSUNNY   38  19  46 N25G32    30.33R
FOND DU LAC    CLOUDY    39  19  44 N21G30    30.33S
$$

WIZ022-050-052-312100-
EAST CENTRAL WISCONSIN

CITY           SKY/WX    TMP DP  RH WIND       PRES   REMARKS
STURGEON BAY   CLOUDY    36  21  55 N31G39    30.32R
MANITOWOC      CLOUDY    37  22  54 N22G30    30.30R
SHEBOYGAN      CLOUDY    36  21  54 N16G26    30.29R
$$

LMZ563-521-522-541>543-312100-
LAKESHORE

STATION/POSITION TIME  TEMP    WIND        PRES    VSBY  WAVE
                       AIR SEA DIR/SP/G                  HT/PER
                 (UTC) (F)     (DEG/KT/KT) (MB)    (MI)  (FT/S)
SHEBOYGAN LKSHOR 2000   38 48  350/ 30/ 33 1026.6R
KEWAUNEE LKSHORE 2000   37      10/ 17/ 27 1025.2R
NORTHPORT PIER   2000   37     350/ 27     1027.1R
N MID LAKE BUOY  2000   36 48  350/ 29/ 37 1025.7R         8/ 7
CHAMBERS ISLAND  2000   37     350/ 28/ 34 1027.1S
MENOMINEE LKSHOR 2000   37     360/ 27/ 34 1028.0R
$$



USA.gov is the U.S. government's official web portal to all federal, state and local government web resources and services.